Regional Weather Roundup
Issued by NWS Wakefield, VA

Home | Current Version | Previous Version | Graphics & Text | Print | Product List | Glossary On
Versions: 1 2 3 4 5 6 7 8 9 10 11 12 13 14 15 16 17 18 19 20 21 22 23 24 25 26 27 28 29 30 31 32 33 34 35 36 37 38 39 40 41 42 43 44 45 46 47 48 49 50
000
ASUS41 KAKQ 170416
RWRAKQ

REGIONAL WEATHER ROUNDUP
NATIONAL WEATHER SERVICE WAKEFIELD VA
1200 AM EDT TUE OCT 17 2017

Note: "fair" indicates few or no clouds below 12,000 feet with no
significant weather and/or obstructions to visibility. * = Denotes
station may not report precipitation (e.g., rain,snow,etc.),
thunder or fog.

VAZ042-051-052>054-056-170500-
NORTHERN VIRGINIA

CITY           SKY/WX    TMP DP  RH WIND       PRES   REMARKS
WASH NATIONAL  CLEAR     54  38  54 NW14      30.26R
DULLES         CLEAR     51  36  56 N6        30.26R
FORT BELVOIR   CLEAR     52  37  56 NW6       30.26R
QUANTICO       CLEAR     51  39  63 NW9       30.27S
FREDERICKSBRG* CLEAR     52  39  63 N3        30.26R
STAFFORD*      CLEAR     43  41  92 CALM      30.31R
WARRENTON      CLEAR     45  36  71 NW6       30.27S
CULPEPER*      CLEAR     45  38  77 CALM      30.29R
MANASSAS*      CLEAR     47  37  68 N6        30.28R
LEESBURG*      CLEAR     50  39  66 NW10      30.27F
WINCHESTER     CLEAR     43  36  75 NW3       30.28S
FRONT ROYAL*   CLEAR     45  37  76 MISG      30.28S
LURAY*         CLEAR     46  39  76 N5        30.28R
$$

VAZ048-049-060>072-079>083-170500-
CENTRAL AND SOUTH CENTRAL VIRGINIA

CITY           SKY/WX    TMP DP  RH WIND       PRES   REMARKS
RICHMOND       CLEAR     49  41  74 N9        30.25R
CHESTERFIELD*  NOT AVBL
PETERSBURG*    CLEAR     49  40  72 N6        30.25R
HANOVER        CLEAR     46  42  86 CALM      30.26R
TAPPAHANNOCK*  CLEAR     53  34  49 NE3       30.25R
QUINTON*       FAIR      46  43  88 NW6       30.24R
CHARLOTTSVILLE CLEAR     52  37  56 NW3       30.27S
GORDONSVILLE*  CLEAR     44  42  91 CALM      30.28R
ORANGE*        CLEAR     43  39  87 CALM      30.28R
LOUISA*        CLEAR     39  37  93 CALM      30.27R
BUMPASS*       FAIR      53  38  56 N3        30.27R
FARMVILLE*     CLEAR     48  44  84 CALM      30.26S
CREWE*         FAIR      47  46  93 NW3       30.26R
FORT PICKETT*  FAIR      47  44  89 NW6       30.25S
CHASE CITY*    FAIR      49  41  73 CALM      30.26R
CLARKSVILLE*   FAIR      52  41  66 N6        30.25S
SOUTH HILL*    CLEAR     47  44  87 N5        30.30S
LAWRENCEVILLE* FAIR      47  42  82 NW3       30.24R
EMPORIA*       CLEAR     46  43  87 NW7       30.25R
$$

VAZ088>098-170500-
SOUTHEAST VIRGINIA

CITY           SKY/WX    TMP DP  RH WIND       PRES   REMARKS
NORFOLK        MOCLDY    61  48  62 NE16G28   30.18S
VIRGINIA BEACH PTCLDY    58  42  55 NE13      30.17S
NORFOLK NAVAL  MOCLDY    60  43  53 N21G26    30.20
WEST POINT*    CLEAR     47  44  88 CALM      30.24S
SALUDA*        FAIR      57  43  59 N10G20    30.22R
NEWPORT NEWS   CLEAR     53  42  66 N8        30.21R
LANGLEY AFB    CLEAR     56  43  60 N10       30.20R
FORT EUSTIS    CLEAR     55  42  61 N8        30.19R
WILLIAMSBURG*  CLEAR     52  46  82 N5        30.23R
HR EXEC AP*    NOT AVBL
FRANKLIN*      CLEAR     48  43  84 N3        30.22S
US460-WAKEFLD  CLEAR     46  44  93 CALM      30.22S
$$

VAZ020-022-025-037-045-170500-
WEST CENTRAL AND SOUTHWEST VIRGINIA

CITY           SKY/WX    TMP DP  RH WIND       PRES   REMARKS
STAUNTON*      CLEAR     40  36  86 CALM      30.30S
WAYNESBORO*    CLEAR     42  39  91 CALM      30.29S
HOT SPRINGS VA CLEAR     40  35  82 CALM      30.28S
LYNCHBURG      CLEAR     45  40  82 CALM      30.28R
DANVILLE       CLEAR     50  42  74 N7        30.27R
SOUTH BOSTON*  FAIR      49  40  71 N5        30.27R
MARTINSVILLE   CLEAR     40  40  97 CALM      30.31R
ROANOKE        CLEAR     51  39  63 CALM      30.31R
BLACKSBURG     CLEAR     42  39  87 CALM      30.32F
DUBLIN*        CLEAR     46  38  73 SW3       30.32S
MARION*        CLEAR     39  36  86 CALM      30.34S
HILLSVILLE*    CLEAR     42  33  70 CALM      30.28S
RICHLANDS*     FAIR      43  36  74 CALM      30.32S
WISE*          CLEAR     45  36  70 CALM      30.33S
ABINGDON*      CLEAR     44  39  81 CALM      30.32S
$$

MDZ021>025-VAZ099-100-170500-
SOUTHERN MARYLAND AND THE DELMARVA PENINSULA

CITY           SKY/WX    TMP DP  RH WIND       PRES   REMARKS
PATUXENT RIVER CLEAR     55  39  54 N15       30.22S
BAY BRIDGE APT CLEAR     57  37  47 N14G22    30.24R
LEONARDTOWN    NOT AVBL
DOVER          NOT AVBL
GEORGETOWN     CLEAR     49  42  77 N3        30.22R
EASTON         CLEAR     48  43  81 N3        30.26S
CAMBRIDGE      CLEAR     45  43  93 CALM      30.22S
SALISBURY      CLEAR     48  43  82 N6        30.21R
OCEAN CITY     CLEAR     47  44  90 NW6       30.21R
WALLOPS ISLAND CLEAR     49  45  86 NW6       30.21R
ACCOMACK*      CLEAR     51  44  77 N6        30.21R
$$

NCZ012>017-030>032-170500-
NORTH CENTRAL AND EASTERN NORTH CAROLINA

CITY           SKY/WX    TMP DP  RH WIND       PRES   REMARKS
ROANOKE RAPIDS FAIR      46  45  93 N6        30.23R
RALEIGH        PTCLDY    51  47  86 N5        30.25R
ELIZABETH CITY PTCLDY    57  51  80 N13       30.18R
AHOSKIE*       CLEAR     48  45  87 NW3       30.22R
EDENTON*       PTCLDY    53  49  87 CALM      30.19S
CURRITUCK*     PTCLDY    60  47  62 N16G23    30.18S
KILL DEVIL HLS PTCLDY    61  45  54 N16G25    30.13S
MANTEO         CLOUDY   N/A N/A N/A NE26      30.15S
CAPE HATTERAS  CLOUDY    64  51  62 NE14G31   30.11R
TARBORO*       NOT AVBL
GOLDSBORO      CLEAR     54  48  81 N7        30.19S
WASHINGTON     PTCLDY    52  47  82 N5        30.20R
GREENVILLE     CLEAR     50  46  87 N3        30.21S
NEW BERN       CLOUDY    59  47  64 N13G21    30.18R
WILMINGTON     CLOUDY    60  51  72 N16       30.16R
$$

VAZ048-170500-
ELSEWHERE

CITY           SKY/WX    TMP DP  RH WIND       PRES   REMARKS
HARRISBURG PA  CLEAR     49  32  52 N6        30.26R
BALTIMORE      CLEAR     49  39  68 NW6       30.25R
ANNAPOLIS      CLEAR     57  43  59 NW13      30.24R
ANDREWS AFB    CLEAR     51  37  57 NW12      30.24R
PHILADELPHIA   CLEAR     50  34  54 N10       30.25R
HENDERSON NC   CLEAR     47  41  77 CALM      30.25R
GREENSBORO     CLEAR     50  41  71 N6        30.26R
ROCKY MOUNT    CLEAR     52  48  86 N6        30.23R
$$

VAZ100-170500-
MARINE

STATION/POSITION TIME  TEMP    WIND        PRES    WAVE   SWELL
                       AIR SEA DIR/SP/G            HT/PER HT/PER
                 (UTC) (F)     (DEG/KT/KT) (MB)    (FT/S) (FT/S)
BRANDYWINE LGT   0336   57      30/ 22/ 25 1023.2R
CAPE MAY NJ      0342   52 67   40/  5/ 10 1022.6R
LEWES DE         0336   58 65   30/ 21/ 24 1022.7R
15NM E FENWICK I 0350   59 68  360/ 21/ 27 1022.2R   6/ 6
OCEAN-CITY-INLET 0336   56 68  350/  6/  9 1022.9R
WACHAPREAGUE VA  0336   52 65  330/  3/  5 1022.8R
THOMAS POINT MD  0400   56 69  330/ 15/ 18   N/A
COVE POINT MD    0336   60     360/ 18/ 26 1024.0R
SOLOMONS ISLAND  0336   56 71  340/ 10/ 16 1023.2R
BISHOPS HEAD MD  0336   55 65  340/  6/  8 1023.4R
PINEY POINT MD   0336           10/ 11/ 12   N/A
CAMBRIDGE MD     0336   56 68              1024.1R
LEWISETTA VA     0336   60 67   10/ 12/ 19 1023.3R
RAPPAHANNOCK LGT 0336           10/ 19/ 24 1023.2R
YORK RVR RNG VA  0336   61      10/ 20/ 23 1022.8R
YORKTOWN VA      0336   56 72  350/ 12/ 15 1022.9R
DOMINION TERM VA 0336   57     350/ 11/ 13 1022.9R
KIPTOPEKE VA     0336      71   40/  8/ 12   N/A
CAPE HENRY VA    0336   60      20/ 23/ 28   N/A
WILLOUBY STN VA  0336   60     350/ 16/ 19 1022.3S
S CRANEY ISL VA  0336   60     350/ 14/ 19 1022.1R
CAPE HENRY BUOY  0330      71                N/A     5/ 6
CAPE CHARLES BUO 0351      71                N/A     5/ 6
64NM E OF VA BCH 0350   62 69   10/ 27/ 31 1020.0R   9/ 7
DUCK PIER NC     0336   63 71   10/ 25/ 34 1019.9F
44100 DUCK FRF   0335      72                N/A     9/ 7   2/11
44056 DUCK FRF   0330      72                N/A     8/ 7   2/11
OREGON INLET NC  0336   62 72  360/ 20/ 26 1020.1R
HATTERAS NC      0336   65 74   10/ 27/ 34 1019.2S
DIAMOND SHLS NC  0350   67 81   10/ 27/ 33 1018.0R   8/ 7
CAPE LOOKOUT NC  0400   62      10/ 20/ 24 1019.8R
$$



USA.gov is the U.S. government's official web portal to all federal, state and local government web resources and services.